Volver al catálogo

CZ-4 DEB

ActivoSSO
NORAD 26159·DEBRIS·🇨🇳 China

Lanzado Oct 14, 1999 desde Taiyuan Satellite Launch Center

Loading…

Próximos Pases (próximas 24 horas)

TLE

ActualizadoSource: Space-Track

Época: Sep 14, 2026, 09:47 UTC

1 26159U 99057AV  26257.40790602  .00000526  00000-0  25155-3 0  9997
2 26159  99.3762 230.8214 0294007 113.7196  36.2513 14.03136155340535

Sigue CZ-4 DEB en tiempo real con AllMySat

Download on the App Store